LogID,LogEntryDate,LogEntryTime,LogEntrySeconds,LogNotes,AFR,STFT,CurrentLTFT,IdleLTFT,CruiseLTFT,Load,O2Sensor2,IPW,AFRMAP,LoadTiming,TimingAdv,KnockSum,RPM,Baro,MAP,Boost,WGDC_Active,MAF,IDC,InVVTtarget,ExVVTtarget,InVVTactual,ExVVTactual,TPS,APP,IAT,WGDCCorr,Speed,Battery,ECT,MAT,MAPCalcs,IMAPCalcs,MAFCalcs,ChosenCalc,Custom
1,2018-09-01,12:49:34.49948,0.09907,,0,0,0,-12.5,1.953125,234.375,0,9.9,12.3789473684211,234.375,10,0,5054.6875,14.43125513,33.0950067,18.66375157,48.5,3.862776,41.701171875,28.125,-1.875,29.84375,-0.3125,87.0588235294118,100.164705882353,89.6,0,4.972,14.44601,183.2,87.8,239.0625,0,339.0625,239.0625,
2,2018-09-01,12:49:34.51857,0.11827,,0,0,0,-12.5,1.953125,240.625,0,10.1,12.3789473684211,240.625,10,0,5242.1875,14.43125513,33.0950067,18.66375157,48.5,3.862776,44.1217447916667,28.125,-1.875,29.84375,-0.3125,87.0588235294118,100.164705882353,89.6,0,4.972,14.44601,183.2,87.8,245.3125,0,328.125,245.3125,
3,2018-09-01,12:49:34.53852,0.13832,,0,0,0,-12.5,1.953125,245.3125,0,10.2,12.3789473684211,245.3125,11,0,5359.375,14.43125513,34.1563626,19.72510747,50,4.137288,45.5546875,28.125,-1.875,29.84375,-0.3125,87.0588235294118,100.164705882353,89.6,0,4.972,14.44601,183.2,87.8,250,0,314.0625,250,
4,2018-09-01,12:49:34.56232,0.1626,,0,0,0,-12.5,1.953125,250,0,10.2,12.3789473684211,250,10,0,5562.5,14.43125513,34.1563626,19.72510747,50,4.137288,47.28125,24.375,-1.875,30.46875,-1.09375,87.0588235294118,100.164705882353,89.6,0,4.972,14.44601,183.2,87.8,251.5625,0,339.0625,251.5625,
5,2018-09-01,12:49:34.58340,0.18306,,0,0,0,-12.5,1.953125,251.5625,0,0,12.3789473684211,251.5625,10,0,5757.8125,14.43125513,35.1212316,20.68997647,51.5,4.196112,0,24.375,-1.875,30.46875,-1.09375,87.0588235294118,100.164705882353,89.6,0,4.972,14.44601,183.2,87.8,257.8125,0,318.75,257.8125,
6,2018-09-01,12:49:34.60434,0.20428,,0,0,0,-12.5,1.953125,257.8125,0,11.1,12.3789473684211,257.8125,11,0,5937.5,14.43125513,35.1212316,20.68997647,51.5,4.196112,54.921875,22.5,-1.875,30.3125,-0.625,87.0588235294118,100.164705882353,89.6,0,4.972,14.44601,183.2,87.8,260.9375,0,293.75,260.9375,
7,2018-09-01,12:49:34.62329,0.22325,,0,0,0,-12.5,1.953125,260.9375,0,10.9,12.3789473684211,260.9375,10,0,5703.125,14.43125513,35.5071792,21.07592407,51,3.941208,51.8033854166667,22.5,-1.875,30.3125,-0.625,87.0588235294118,100.164705882353,89.6,0,4.972,14.44601,183.2,87.8,262.5,0,281.25,262.5,
8,2018-09-01,12:49:34.64324,0.2429,,0,0,0,-12.5,1.953125,262.5,0,10.7,12.3789473684211,262.5,10,0,5625,14.43125513,35.5071792,21.07592407,51,3.941208,50.15625,23.125,-1.875,29.6875,-1.40625,87.0588235294118,100.164705882353,91.4,0,4.972,14.44601,183.2,87.8,259.375,0,365.625,259.375,
9,2018-09-01,12:49:34.66404,0.26432,,0,0,0,-12.5,1.953125,259.375,0,10.5,12.3789473684211,259.375,11,0,5804.6875,14.43125513,35.9896137,21.55835857,51.5,4.11768,50.791015625,23.125,-1.875,29.6875,-1.40625,87.0588235294118,100.164705882353,91.4,0,4.972,14.37268,183.2,87.8,264.0625,0,321.875,264.0625,
10,2018-09-01,12:49:34.68402,0.28409,,0,0,0,-12.5,1.953125,264.0625,0,10.6,12.3789473684211,265.625,11,0,6109.375,14.43125513,35.9896137,21.55835857,51.5,4.11768,53.9661458333333,20.625,-1.875,28.90625,-1.40625,87.0588235294118,100.164705882353,91.4,0,4.972,14.37268,183.2,87.8,265.625,0,339.0625,265.625,
11,2018-09-01,12:49:34.70806,0.30832,,0,0,0,-12.5,1.953125,265.625,0,10.5,12.3789473684211,265.625,11,0,6335.9375,14.43125513,36.1825875,21.75133237,53,4.11768,55.439453125,20.625,-1.875,28.90625,-1.40625,87.0588235294118,100.164705882353,91.4,0,4.972,14.37268,183.2,87.8,265.625,0,317.1875,265.625,
12,2018-09-01,12:49:34.72887,0.32845,,0,0,0,-12.5,1.953125,265.625,0,10.5,12.3789473684211,267.1875,11,0,6492.1875,14.43125513,36.1825875,21.75133237,53,4.11768,56.806640625,19.375,-1.875,28.75,-0.78125,87.0588235294118,100.164705882353,91.4,0,4.972,14.37268,183.2,87.8,265.625,0,331.25,265.625,
13,2018-09-01,12:49:34.74882,0.34824,,0,0,0,-12.5,1.953125,265.625,0,10.4,12.3789473684211,265.625,11,0,6640.625,14.43125513,36.0861006,21.65484547,53.5,4.333368,57.5520833333333,19.375,-1.875,28.75,-0.78125,87.0588235294118,100.164705882353,91.4,0,4.972,14.37268,183.2,87.8,267.1875,0,337.5,267.1875,
14,2018-09-01,12:49:34.76881,0.36846,,0,0,0,-12.5,1.953125,267.1875,0,10.4,12.3789473684211,267.1875,12,0,6757.8125,14.43125513,36.0861006,21.65484547,53.5,4.333368,58.5677083333333,18.125,-1.875,28.75,-0.78125,87.0588235294118,99.6588235294118,91.4,0,4.972,14.37268,183.2,87.8,267.1875,0,315.625,267.1875,
15,2018-09-01,12:49:34.79373,0.39397,,0,0,0,-12.5,1.953125,267.1875,0,10.4,12.3789473684211,267.1875,12,0,6835.9375,14.43125513,36.2790744,21.84781927,54,4.431408,59.2447916666667,18.125,-1.875,28.75,-0.78125,87.0588235294118,99.6588235294118,91.4,0,4.972,14.44601,183.2,87.8,267.1875,0,329.6875,267.1875,
16,2018-09-01,12:49:34.81778,0.41802,,0,0,0,-12.5,1.953125,267.1875,0,10.4,12.3789473684211,267.1875,12,0,6843.75,14.43125513,36.2790744,21.84781927,54,4.431408,59.3125,17.5,-1.875,28.4375,-0.78125,87.0588235294118,99.6588235294118,91.4,0,4.972,14.44601,183.2,87.8,267.1875,0,304.6875,267.1875,
17,2018-09-01,12:49:34.83870,0.4384,,0,0,0,-12.5,1.953125,267.1875,0,10.4,12.3789473684211,267.1875,12,0,6789.0625,14.43125513,36.3755613,21.94430617,54,4.21572,58.8385416666667,17.5,-1.875,28.4375,-0.78125,87.0588235294118,99.6588235294118,91.4,0,4.972,14.44601,183.2,87.8,268.75,0,326.5625,268.75,
18,2018-09-01,12:49:34.86052,0.46006,,0,0,0,-12.5,1.953125,268.75,0,10.4,12.3789473684211,268.75,12,0,6742.1875,14.43125513,36.3755613,21.94430617,54,4.21572,58.4322916666667,18.125,-1.875,28.125,-0.625,87.0588235294118,99.6588235294118,91.4,0,4.972,14.44601,183.2,87.8,267.1875,0,329.6875,267.1875,
19,2018-09-01,12:49:34.88160,0.48175,,0,0,0,-12.5,1.953125,267.1875,0,10.4,12.3789473684211,267.1875,12,0,6656.25,14.43125513,36.3755613,21.94430617,53.5,4.137288,57.6875,18.125,-1.875,28.125,-0.625,87.0588235294118,99.6588235294118,91.4,0,4.972,14.44601,183.2,87.8,268.75,0,320.3125,268.75,
20,2018-09-01,12:49:34.90053,0.5004,,0,0,0,-12.5,1.953125,268.75,0,10.5,12.3789473684211,268.75,11,0,6585.9375,14.43125513,36.3755613,21.94430617,53.5,4.137288,57.626953125,18.75,-1.875,27.8125,-0.46875,84.3137254901961,100.164705882353,93.2,0,4.972,14.44601,183.2,87.8,268.75,0,298.4375,268.75,
21,2018-09-01,12:49:34.92047,0.52058,,0,0,0,-12.5,1.953125,268.75,0,10.4,12.3789473684211,268.75,11,0,6562.5,14.43125513,36.3755613,21.94430617,53.5,4.274544,56.875,18.75,-1.875,27.8125,-0.46875,84.3137254901961,100.164705882353,93.2,0,4.972,13.9327,183.2,87.8,260.9375,114.0625,310.9375,260.9375,
22,2018-09-01,12:49:34.94044,0.5401,,0,0,0,-12.5,1.953125,259.375,0,10,12.3789473684211,259.375,12,0,6546.875,14.43125513,36.3755613,21.94430617,53.5,4.274544,54.5572916666667,20,-1.875,27.1875,-0.625,84.3137254901961,100.164705882353,93.2,0,4.972,13.9327,183.2,87.8,251.5625,226.5625,273.4375,251.5625,
23,2018-09-01,12:49:34.96025,0.56021,,0,0,0,-12.5,1.953125,251.5625,0,9.5,12.3789473684211,251.5625,12,0,6585.9375,14.43125513,34.4458233,20.01456817,19,4.039248,52.138671875,20,-1.875,27.1875,-0.625,46.2745098039216,100.164705882353,93.2,0,4.972,13.9327,183.2,87.8,239.0625,215.625,243.75,239.0625,
24,2018-09-01,12:49:34.98020,0.57988,,0,0,0,-12.5,1.953125,239.0625,0,8.9,12.3789473684211,239.0625,12,0,6546.875,14.43125513,34.4458233,20.01456817,19,4.039248,48.5559895833333,20.625,-1.875,27.1875,-0.15625,46.2745098039216,100.164705882353,93.2,0,4.972,14.29935,183.2,87.8,223.4375,201.5625,228.125,223.4375,
25,2018-09-01,12:49:35.00018,0.6,,0,0,0,-12.5,1.953125,223.4375,0,8.2,12.4609271523179,223.4375,13,0,6437.5,14.43125513,30.1039128,15.67265767,11.5,3.72552,43.9895833333333,20.625,-1.875,27.1875,-0.15625,46.2745098039216,100.164705882353,93.2,0,4.972,14.29935,183.2,87.8,209.375,189.0625,190.625,209.375,
26,2018-09-01,12:49:35.02209,0.62154,,0,0,0,-12.5,1.953125,209.375,0,7.9,12.544,209.375,14,0,6250,14.43125513,30.1039128,15.67265767,11.5,3.72552,41.1458333333333,22.5,-1.875,26.875,-0.3125,41.5686274509804,100.164705882353,93.2,0,4.972,14.29935,183.2,87.8,201.5625,181.25,153.125,201.5625,
27,2018-09-01,12:49:35.04403,0.64354,,0,0,0,-12.5,1.953125,200,0,7.7,12.544,200,14,0,6062.5,14.43125513,28.4636355,14.03238037,9,3.294144,38.9010416666667,22.5,-1.875,26.875,-0.3125,41.5686274509804,100.164705882353,93.2,0,4.972,14.44601,183.2,87.8,195.3125,176.5625,167.1875,195.3125,
28,2018-09-01,12:49:35.06401,0.6637,,0,0,0,-12.5,1.953125,192.1875,0,7.4,12.544,189.0625,14,0,5890.625,14.43125513,28.4636355,14.03238037,9,3.294144,36.3255208333333,24.375,-1.875,26.71875,-1.09375,41.5686274509804,100.164705882353,93.2,0,4.972,14.44601,183.2,87.8,185.9375,167.1875,175,185.9375,
29,2018-09-01,12:49:35.08392,0.68355,,0,0,0,-12.5,1.953125,185.9375,0,7.1,12.6281879194631,185.9375,15,0,5914.0625,14.43125513,26.2444368,11.81318167,8,3.509832,34.9915364583333,24.375,-1.875,26.71875,-1.09375,38.8235294117647,99.6588235294118,93.2,0,4.972,14.44601,183.2,87.8,176.5625,159.375,184.375,176.5625,
30,2018-09-01,12:49:35.10800,0.70766,,0,0,0,-12.5,1.953125,178.125,0,6.7,12.6281879194631,171.875,16,0,6023.4375,14.43125513,26.2444368,11.81318167,8,3.509832,33.630859375,23.75,-1.875,26.5625,-0.9375,38.8235294117647,99.6588235294118,93.2,0,4.972,14.44601,183.2,87.8,170.3125,154.6875,173.4375,170.3125,
31,2018-09-01,12:49:35.12794,0.72776,,0,0,0,-12.5,1.953125,168.75,0,6.6,12.7135135135135,168.75,17,0,6117.1875,14.43125513,24.9901071,10.55885197,9.5,3.33336,33.64453125,23.75,-1.875,26.5625,-0.9375,38.8235294117647,99.6588235294118,93.2,0,4.972,14.44601,183.2,87.8,173.4375,0,195.3125,168.75,
32,2018-09-01,12:49:35.14875,0.74857,,0,0,0,-12.5,1.953125,167.1875,0,6.6,12.7135135135135,170.3125,17,0,6101.5625,14.43125513,24.9901071,10.55885197,9.5,3.33336,33.55859375,23.125,-1.875,26.40625,-0.46875,44.3137254901961,100.164705882353,93.2,0,4.972,14.44601,183.2,87.8,178.125,0,231.25,178.125,
33,2018-09-01,12:49:35.17169,0.77127,,0,0,0,-12.5,1.953125,178.125,0,7.2,12.6281879194631,178.125,16,0,5953.125,14.43125513,26.5338975,12.10264237,16.5,3.33336,35.71875,23.125,-1.875,26.40625,-0.46875,44.3137254901961,100.164705882353,93.2,0,4.972,14.37268,183.2,87.8,189.0625,0,204.6875,181.25,
34,2018-09-01,12:49:35.19363,0.79338,,0,0,0,-12.5,1.953125,182.8125,0,7.5,12.6281879194631,182.8125,16,0,5734.375,14.43125513,26.5338975,12.10264237,16.5,3.33336,35.83984375,25.625,-1.875,26.5625,-0.9375,44.3137254901961,100.164705882353,93.2,0,4.972,14.37268,183.2,87.8,193.75,0,212.5,185.9375,
35,2018-09-01,12:49:35.21258,0.81215,,0,0,0,-12.5,1.953125,185.9375,0,7.7,12.6281879194631,185.9375,14,0,5562.5,14.43125513,27.7882272,13.35697207,17.5,3.549048,35.6927083333333,25.625,-1.875,26.5625,-0.9375,47.4509803921569,99.6588235294118,93.2,0,4.972,14.37268,183.2,87.8,196.875,0,203.125,190.625,
36,2018-09-01,12:49:35.23766,0.83733,,0,0,0,-12.5,1.953125,190.625,0,8,12.544,192.1875,14,0,5437.5,14.43125513,27.7882272,13.35697207,17.5,3.549048,36.25,26.25,-1.875,26.71875,-0.46875,47.4509803921569,99.6588235294118,93.2,0,44.748,14.44601,183.2,87.8,185.9375,60.9375,176.5625,185.9375,
37,2018-09-01,12:49:35.25860,0.85826,,0,0,0,-12.5,1.953125,185.9375,0,7.5,12.6281879194631,185.9375,13,0,5390.625,14.43125513,25.9549761,11.52372097,7.5,3.215712,33.69140625,26.25,-1.875,26.71875,-0.46875,47.4509803921569,99.6588235294118,93.2,0,44.748,14.44601,183.2,87.8,171.875,115.625,118.75,171.875,
38,2018-09-01,12:49:35.28353,0.88318,,0,0,0,-12.5,1.953125,168.75,0,6.6,12.7135135135135,168.75,15,0,5351.5625,14.43125513,25.9549761,11.52372097,7.5,3.215712,29.43359375,26.25,-1.875,26.71875,-0.625,37.6470588235294,99.6588235294118,93.2,0,44.748,14.44601,183.2,87.8,157.8125,142.1875,162.5,157.8125,
39,2018-09-01,12:49:35.30248,0.90217,,0,0,0,-12.5,1.953125,157.8125,0,6.2,12.8,154.6875,15,0,5203.125,14.43125513,23.156856,8.72560087,7,3.647088,26.8828125,26.25,-1.875,26.71875,-0.625,37.6470588235294,99.6588235294118,93.2,0,44.748,14.51934,183.2,87.8,157.8125,0,234.375,157.8125,
40,2018-09-01,12:49:35.32228,0.92178,,0,0,0,-12.5,1.953125,157.8125,0,5.8,12.8876712328767,156.25,15,0,5039.0625,14.43125513,23.156856,8.72560087,7,3.647088,24.35546875,27.5,-1.875,26.71875,-0.3125,37.6470588235294,99.6588235294118,93.2,0,44.748,14.51934,183.2,87.8,157.8125,0,170.3125,157.8125,
41,2018-09-01,12:49:35.34236,0.94207,,0,0,0,-12.5,1.953125,157.8125,0,5.7,12.8876712328767,157.8125,15,0,5007.8125,14.43125513,24.4111857,9.97993057,8.5,3.019632,23.787109375,27.5,-1.875,26.71875,-0.3125,40,99.6588235294118,93.2,0,44.748,14.51934,183.2,87.8,167.1875,0,129.6875,151.5625,
42,2018-09-01,12:49:35.36331,0.96311,,0,0,0,-12.5,1.953125,151.5625,0,5.5,12.9765517241379,151.5625,15,0,4812.5,14.43125513,24.4111857,9.97993057,8.5,3.019632,22.0572916666667,28.125,-1.875,26.5625,-0.15625,40,99.6588235294118,93.2,0,44.748,14.51934,183.2,87.8,168.75,0,187.5,153.125,
43,2018-09-01,12:49:35.38427,0.9843,,0,0,0,-12.5,1.953125,153.125,0,6.4,13.0666666666667,165.625,15,0,4601.5625,14.43125513,24.9901071,10.55885197,13.5,3.705912,24.5416666666667,28.125,-1.875,26.5625,-0.15625,40,99.6588235294118,93.2,0,44.748,14.51934,183.2,87.8,170.3125,0,303.125,170.3125,
44,2018-09-01,12:49:35.40419,1.00437,,0,0,0,-12.5,1.953125,170.3125,0,7.2,12.9765517241379,173.4375,13,0,4468.75,14.43125513,24.9901071,10.55885197,13.5,3.705912,26.8125,31.875,-1.875,26.875,-0.15625,58.8235294117647,99.6588235294118,93.2,0,44.748,14.51934,183.2,87.8,184.375,0,228.125,176.5625,
45,2018-09-01,12:49:35.42415,1.02434,,0,0,0,-12.5,1.953125,176.5625,0,7.4,12.8876712328767,181.25,13,0,4406.25,14.43125513,28.7530962,14.32184107,38,3.294144,27.171875,31.875,-1.875,26.875,-0.15625,58.8235294117647,99.6588235294118,93.2,0,44.748,14.44601,183.2,87.8,203.125,0,223.4375,185.9375,
46,2018-09-01,12:49:35.44396,1.04428,,0,0,0,-12.5,1.953125,189.0625,0,7.8,12.8,189.0625,12,0,4375,14.43125513,28.7530962,14.32184107,38,3.294144,28.4375,32.5,-1.875,27.5,-0.15625,58.8235294117647,99.6588235294118,93.2,0,44.748,14.44601,183.2,87.8,201.5625,43.75,264.0625,195.3125,
47,2018-09-01,12:49:35.46491,1.06435,,0,0,0,-12.5,1.953125,190.625,0,8.2,12.8,200,12,0,4312.5,14.43125513,28.8495831,14.41832797,25.5,3.686304,29.46875,32.5,-1.875,27.5,-0.15625,56.4705882352941,99.6588235294118,93.2,0,44.748,14.44601,183.2,87.8,201.5625,65.625,257.8125,198.4375,
48,2018-09-01,12:49:35.48784,1.08728,,0,0,0,-12.5,1.953125,198.4375,0,8.2,12.8,198.4375,10,0,4210.9375,14.43125513,28.8495831,14.41832797,25.5,3.686304,28.7747395833333,33.125,-1.875,28.28125,-0.3125,56.4705882352941,99.6588235294118,93.2,0,44.748,14.51934,183.2,87.8,195.3125,175,153.125,193.75,
49,2018-09-01,12:49:35.50693,1.10662,,0,0,0,-12.5,1.953125,193.75,0,7.9,12.8876712328767,193.75,10,0,4140.625,14.43125513,27.981201,13.54994587,12.5,3.156888,27.2591145833333,33.125,-1.875,28.28125,-0.3125,56.4705882352941,99.6588235294118,93.2,0,44.748,14.51934,183.2,87.8,190.625,171.875,151.5625,189.0625,
50,2018-09-01,12:49:35.52674,1.12709,,0,0,0,-12.5,1.953125,187.5,0,7.6,12.8876712328767,187.5,10,0,4070.3125,14.43125513,27.981201,13.54994587,12.5,3.156888,25.7786458333333,33.125,-1.875,29.6875,-0.15625,43.1372549019608,99.6588235294118,93.2,0,44.748,14.51934,183.2,87.8,190.625,20.3125,215.625,187.5,
51,2018-09-01,12:49:35.54768,1.14733,,0,0,0,-12.5,1.953125,187.5,0,7.7,12.8876712328767,187.5,11,0,4046.875,14.43125513,27.1128189,12.68156377,10.5,3.745128,25.9674479166667,33.125,-1.875,29.6875,-0.15625,43.1372549019608,99.6588235294118,93.2,0,44.748,14.51934,183.2,87.8,182.8125,81.25,298.4375,182.8125,
52,2018-09-01,12:49:35.56771,1.1674,,0,0,0,-12.5,1.953125,182.8125,0,7.4,12.9765517241379,182.8125,11,0,4054.6875,14.43125513,27.1128189,12.68156377,10.5,3.745128,25.00390625,33.125,-1.875,29.84375,-0.3125,43.1372549019608,99.6588235294118,93.2,0,44.748,14.51934,183.2,87.8,181.25,120.3125,170.3125,181.25,
53,2018-09-01,12:49:35.58758,1.18771,,0,0,0,-12.5,1.953125,176.5625,0,6.8,12.9765517241379,176.5625,12,0,4117.1875,14.43125513,26.7268713,12.29561617,6,2.921592,23.3307291666667,33.125,-1.875,29.84375,-0.3125,37.6470588235294,99.6588235294118,93.2,0,44.748,14.51934,183.2,87.8,179.6875,160.9375,135.9375,167.1875,
54,2018-09-01,12:49:35.60667,1.20662,,0,0,0,-12.5,1.953125,167.1875,0,6.8,13.0666666666667,167.1875,13,0,4250,14.43125513,26.7268713,12.29561617,6,2.921592,24.0833333333333,32.5,-1.875,30,-0.46875,37.6470588235294,99.6588235294118,93.2,0,44.748,14.51934,183.2,87.8,160.9375,145.3125,285.9375,160.9375,
55,2018-09-01,12:49:35.62747,1.22697,,0,0,0,-12.5,1.953125,160.9375,0,2.6,13.0666666666667,160.9375,13,0,4375,14.43125513,20.5517097,6.12045457,8.5,4.470624,9.47916666666667,32.5,-1.875,30,-0.46875,37.6470588235294,99.6588235294118,93.2,0,44.748,14.51934,183.2,87.8,142.1875,0,57.8125,142.1875,
56,2018-09-01,12:49:35.65539,1.25562,,0,0,0,-12.5,1.953125,142.1875,0,5.6,13.3446808510638,142.1875,15,0,4445.3125,14.43125513,20.5517097,6.12045457,8.5,4.470624,20.7447916666667,28.75,-1.875,30.3125,-0.15625,48.2352941176471,100.164705882353,95,0,44.748,14.51934,183.2,87.8,145.3125,0,393.75,145.3125,
57,2018-09-01,12:49:35.68145,1.28149,,0,0,0,-12.5,1.953125,153.125,0,6.3,13.158041958042,153.125,16,0,4484.375,14.43125513,27.981201,13.54994587,20,3.352968,23.54296875,28.75,-1.875,30.3125,-0.15625,48.2352941176471,100.164705882353,95,0,44.748,14.51934,183.2,87.8,196.875,0,185.9375,160.9375,
58,2018-09-01,12:49:35.70140,1.3014,,0,0,0,-12.5,1.953125,160.9375,0,6.7,12.9765517241379,164.0625,14,0,4726.5625,14.43125513,27.981201,13.54994587,20,3.352968,26.3899739583333,29.375,-1.875,30.15625,-0.3125,48.2352941176471,100.164705882353,95,0,44.748,14.51934,183.2,87.8,192.1875,62.5,212.5,167.1875,
59,2018-09-01,12:49:35.72135,1.3214,,0,0,0,-12.5,1.953125,170.3125,0,7.2,12.8876712328767,170.3125,15,0,4812.5,14.43125513,26.4374106,12.00615547,9.5,3.490224,28.875,29.375,-1.875,30.15625,-0.3125,41.1764705882353,100.164705882353,95,0,44.748,14.51934,183.2,87.8,181.25,121.875,220.3125,176.5625,
60,2018-09-01,12:49:35.74116,1.34117,,0,0,0,-12.5,1.953125,178.125,0,7.4,12.7135135135135,178.125,14,0,4898.4375,14.43125513,26.4374106,12.00615547,9.5,3.490224,30.20703125,29.375,-1.875,29.84375,-0.46875,41.1764705882353,100.164705882353,95,0,44.748,14.44601,183.2,87.8,171.875,154.6875,171.875,171.875,
61,2018-09-01,12:49:35.76311,1.3626,,0,0,0,-12.5,1.953125,171.875,0,7,12.8,167.1875,14,0,4953.125,14.43125513,24.6041595,10.17290437,6.5,3.098064,28.8932291666667,29.375,-1.875,29.84375,-0.46875,41.1764705882353,100.164705882353,95,0,44.748,14.44601,183.2,87.8,164.0625,146.875,143.75,164.0625,
62,2018-09-01,12:49:35.78114,1.3811,,0,0,0,-12.5,1.953125,164.0625,0,6.6,12.8876712328767,164.0625,15,0,4945.3125,14.43125513,24.6041595,10.17290437,6.5,3.098064,27.19921875,28.75,-1.875,29.84375,-0.3125,40,100.164705882353,95,0,44.748,14.44601,183.2,87.8,165.625,0,192.1875,164.0625,
63,2018-09-01,12:49:35.80114,1.40132,,0,0,0,-12.5,1.953125,165.625,0,6.9,12.8,165.625,15,0,4914.0625,14.43125513,24.6041595,10.17290437,9.5,3.607872,28.255859375,28.75,-1.875,29.84375,-0.3125,40,100.164705882353,95,0,44.748,14.44601,183.2,87.8,167.1875,0,270.3125,167.1875,
64,2018-09-01,12:49:35.82109,1.42127,,0,0,0,-12.5,1.953125,167.1875,0,7,12.8876712328767,170.3125,14,0,4812.5,14.43125513,24.6041595,10.17290437,9.5,3.607872,28.0729166666667,30,-1.875,29.53125,-0.3125,40,100.164705882353,95,0,44.748,14.44601,183.2,87.8,171.875,0,167.1875,170.3125,
65,2018-09-01,12:49:35.84290,1.44251,,0,0,0,-12.5,1.953125,170.3125,0,7,12.8876712328767,170.3125,14,0,4812.5,14.43125513,25.2795678,10.84831267,7.5,2.725512,28.0729166666667,30,-1.875,29.53125,-0.3125,38.8235294117647,100.164705882353,95,0,44.748,14.44601,183.2,87.8,175,0,101.5625,162.5,
66,2018-09-01,12:49:35.86099,1.461,,0,0,0,-12.5,1.953125,162.5,0,6.4,12.9765517241379,162.5,14,0,4812.5,14.43125513,25.2795678,10.84831267,7.5,2.725512,25.6666666666667,28.75,-1.875,29.375,-0.15625,38.8235294117647,100.164705882353,95,0,44.748,14.44601,183.2,87.8,170.3125,0,146.875,154.6875,
67,2018-09-01,12:49:35.88093,1.48108,,0,0,0,-12.5,1.953125,154.6875,0,6.9,12.9765517241379,167.1875,15,0,4859.375,14.43125513,23.6392905,9.20803537,8.5,3.803952,27.94140625,28.75,-1.875,29.375,-0.15625,38.8235294117647,100.164705882353,95,0,44.748,14.44601,183.2,87.8,162.5,0,325,162.5,
68,2018-09-01,12:49:35.90088,1.50095,,0,0,0,-12.5,1.953125,162.5,0,6.7,12.8876712328767,162.5,14,0,4882.8125,14.43125513,23.6392905,9.20803537,8.5,3.803952,27.2623697916667,28.75,-1.875,29.375,-0.46875,45.8823529411765,100.164705882353,95,0,44.748,14.44601,183.2,87.8,167.1875,0,209.375,165.625,
69,2018-09-01,12:49:35.92068,1.52083,,0,0,0,-12.5,1.953125,167.1875,0,7.1,12.8,167.1875,15,0,4937.5,14.43125513,27.3057927,12.87453757,20,3.72552,29.2135416666667,28.75,-1.875,29.375,-0.46875,45.8823529411765,100.164705882353,95,0,27.346,14.51934,183.2,87.8,187.5,0,220.3125,173.4375,
70,2018-09-01,12:49:35.94163,1.54111,,0,0,0,-12.5,1.953125,173.4375,0,7.6,12.8,181.25,14,0,5101.5625,14.43125513,27.3057927,12.87453757,20,3.72552,32.3098958333333,28.125,-1.875,29.0625,-0.46875,45.8823529411765,100.164705882353,95,0,27.346,14.51934,183.2,87.8,195.3125,0,234.375,184.375,
71,2018-09-01,12:49:35.96556,1.56533,,0,0,0,-12.5,1.953125,187.5,0,8,12.7135135135135,187.5,14,0,5195.3125,14.43125513,27.8847141,13.45345897,17.5,3.686304,34.6354166666667,28.125,-1.875,29.0625,-0.46875,47.843137254902,100.164705882353,95,0,27.346,14.51934,183.2,87.8,193.75,62.5,218.75,193.75,
72,2018-09-01,12:49:35.98665,1.58663,,0,0,0,-12.5,1.953125,190.625,0,8,12.544,190.625,13,0,5382.8125,14.43125513,27.8847141,13.45345897,17.5,3.686304,35.8854166666667,26.875,-1.875,29.0625,-0.9375,47.843137254902,100.164705882353,95,0,27.346,14.44601,183.2,87.8,184.375,167.1875,221.875,184.375,
73,2018-09-01,12:49:36.00656,1.60626,,0,0,0,-12.5,1.953125,184.375,0,7.7,12.6281879194631,184.375,14,0,5476.5625,14.43125513,27.4022796,12.97102447,18,3.666696,35.1412760416667,26.875,-1.875,29.0625,-0.9375,47.843137254902,100.164705882353,95,0,27.346,14.44601,183.2,87.8,193.75,0,218.75,190.625,
74,2018-09-01,12:49:36.02640,1.62601,,0,0,0,-12.5,1.953125,189.0625,0,7.9,12.6281879194631,192.1875,14,0,5546.875,14.43125513,27.4022796,12.97102447,18,3.666696,36.5169270833333,25.625,-1.875,28.75,-0.625,53.3333333333333,100.164705882353,95,0,27.346,14.44601,183.2,87.8,196.875,0,220.3125,193.75,
75,2018-09-01,12:49:36.04649,1.64657,,0,0,0,-12.5,1.953125,198.4375,0,8.4,12.544,198.4375,13,0,5578.125,14.43125513,29.0425569,14.61130177,34.5,3.82356,39.046875,25.625,-1.875,28.75,-0.625,53.3333333333333,100.164705882353,95,0,27.346,14.44601,183.2,87.8,206.25,0,262.5,204.6875,
76,2018-09-01,12:49:36.06743,1.66712,,0,0,0,-12.5,1.953125,207.8125,0,8.7,12.544,207.8125,13,0,5578.125,14.43125513,29.0425569,14.61130177,34.5,3.82356,40.44140625,25.625,-1.875,28.59375,-0.9375,53.3333333333333,100.164705882353,95,0,27.346,14.44601,183.2,87.8,210.9375,21.875,235.9375,210.9375,
77,2018-09-01,12:49:36.08724,1.6867,,0,0,0,-12.5,1.953125,209.375,0,8.8,12.4609271523179,209.375,12,0,5578.125,14.43125513,29.8144521,15.38319697,28,3.686304,40.90625,25.625,-1.875,28.59375,-0.9375,56.078431372549,99.6588235294118,95,0,27.346,14.44601,183.2,87.8,204.6875,114.0625,209.375,204.6875,
78,2018-09-01,12:49:36.11018,1.70968,,0,0,0,-12.5,1.953125,206.25,0,8.6,12.544,206.25,12,0,5578.125,14.43125513,29.8144521,15.38319697,28,3.686304,39.9765625,25.625,-1.875,28.4375,-0.9375,56.078431372549,99.6588235294118,95,0,27.346,14.51934,183.2,87.8,214.0625,0,251.5625,214.0625,
79,2018-09-01,12:49:36.13012,1.72981,,0,0,0,-12.5,1.953125,214.0625,0,8.9,12.4609271523179,214.0625,12,0,5554.6875,14.43125513,30.3933735,15.96211837,42,3.82356,41.197265625,25.625,-1.875,28.4375,-0.9375,56.078431372549,99.6588235294118,95,0,27.346,14.51934,183.2,87.8,217.1875,0,240.625,217.1875,